EZY984N EGAA-EGPF

Flight info

Callsign EZY984N
Flight time 0h 25m
Altitude 17000
Route BLACA
Aircraft A319/M-SDE2E3FGIJ1RWXYZ/LB1

Departure

Time 2026-01-19 14:50
Airport Belfast International Airport (EGAA)

Arrival

Time 2026-01-19 15:15
Airport Glasgow Airport (EGPF)
Time Latitude Longitude Altitude Speed Heading
2026-01-19 14:19 54.66107 -6.21363 274 ft 0 kts 245°
2026-01-19 14:40 54.66115 -6.21334 275 ft 3 kts 241°
2026-01-19 14:40 54.66122 -6.21314 276 ft 3 kts 235°
2026-01-19 14:41 54.66150 -6.21281 277 ft 0 kts 155°
2026-01-19 14:42 54.66149 -6.21280 277 ft 1 kts 155°
2026-01-19 14:43 54.66132 -6.21267 275 ft 4 kts 155°
2026-01-19 14:44 54.66051 -6.21135 272 ft 4 kts 62°
2026-01-19 14:44 54.66135 -6.20825 273 ft 30 kts 64°
2026-01-19 14:45 54.66364 -6.19973 272 ft 28 kts 65°
2026-01-19 14:45 54.66384 -6.19754 275 ft 17 kts 122°
2026-01-19 14:45 54.66353 -6.19706 272 ft 0 kts 147°
2026-01-19 14:46 54.66352 -6.19705 272 ft 1 kts 147°
2026-01-19 14:46 54.66305 -6.19666 272 ft 14 kts 165°
2026-01-19 14:47 54.66226 -6.19812 272 ft 0 kts 245°
2026-01-19 14:48 54.66224 -6.19817 272 ft 4 kts 245°
2026-01-19 14:49 54.65816 -6.21330 272 ft 137 kts 245°
2026-01-19 14:49 54.64919 -6.24950 1379 ft 164 kts 244°
2026-01-19 14:50 54.64099 -6.28710 2794 ft 178 kts 243°
2026-01-19 14:50 54.63553 -6.33123 4076 ft 209 kts 277°
2026-01-19 14:51 54.65755 -6.36663 5395 ft 245 kts 349°
2026-01-19 14:51 54.67464 -6.36544 6064 ft 258 kts 19°
2026-01-19 14:52 54.70582 -6.29106 8152 ft 279 kts 80°
2026-01-19 14:52 54.71613 -6.22570 10057 ft 290 kts 79°
2026-01-19 14:53 54.72755 -6.15344 11150 ft 325 kts 79°
2026-01-19 14:53 54.73995 -6.07671 12893 ft 335 kts 79°
2026-01-19 14:54 54.75267 -5.99775 14521 ft 345 kts 79°
2026-01-19 14:54 54.75904 -5.95805 15265 ft 349 kts 79°
2026-01-19 14:54 54.77209 -5.87599 16649 ft 358 kts 80°
2026-01-19 14:55 54.78515 -5.79345 16865 ft 343 kts 80°
2026-01-19 14:56 54.80356 -5.67719 16868 ft 332 kts 81°
2026-01-19 14:56 54.81564 -5.59978 16873 ft 333 kts 81°
2026-01-19 14:57 54.82765 -5.52215 16877 ft 333 kts 81°
2026-01-19 14:57 54.83960 -5.44446 16880 ft 333 kts 82°
2026-01-19 14:58 54.85150 -5.36704 16884 ft 333 kts 82°
2026-01-19 14:58 54.85746 -5.32815 16887 ft 333 kts 82°
2026-01-19 14:58 54.86931 -5.25055 16889 ft 334 kts 82°
2026-01-19 14:59 54.88801 -5.17566 16890 ft 348 kts 59°
2026-01-19 15:00 54.94849 -5.10271 16890 ft 362 kts 29°
2026-01-19 15:00 54.99380 -5.06372 16891 ft 363 kts 30°
2026-01-19 15:01 55.03885 -5.02455 16645 ft 358 kts 30°
2026-01-19 15:01 55.08268 -4.98633 16108 ft 352 kts 30°
2026-01-19 15:02 55.12632 -4.94815 15604 ft 348 kts 30°
2026-01-19 15:02 55.14787 -4.92927 15345 ft 346 kts 30°
2026-01-19 15:02 55.19068 -4.89175 14785 ft 341 kts 29°
2026-01-19 15:03 55.23369 -4.85410 13602 ft 353 kts 29°
2026-01-19 15:04 55.29923 -4.79648 12330 ft 347 kts 28°
2026-01-19 15:04 55.34490 -4.77584 11790 ft 335 kts
2026-01-19 15:05 55.39058 -4.76390 11123 ft 327 kts
2026-01-19 15:05 55.43513 -4.75194 10457 ft 318 kts
2026-01-19 15:06 55.47797 -4.74225 9690 ft 306 kts 356°
2026-01-19 15:06 55.51824 -4.76173 8726 ft 298 kts 339°
2026-01-19 15:06 55.53775 -4.77380 8248 ft 295 kts 339°
2026-01-19 15:07 55.57592 -4.79777 7317 ft 287 kts 339°
2026-01-19 15:08 55.63125 -4.82597 6197 ft 254 kts
2026-01-19 15:08 55.66343 -4.81171 5814 ft 231 kts 31°
2026-01-19 15:08 55.67627 -4.79547 5478 ft 220 kts 46°
2026-01-19 15:09 55.70618 -4.74070 4645 ft 201 kts 50°
2026-01-19 15:10 55.72547 -4.70513 4097 ft 199 kts 50°
2026-01-19 15:10 55.73502 -4.68750 3820 ft 198 kts 49°
2026-01-19 15:10 55.75398 -4.65245 3283 ft 196 kts 49°
2026-01-19 15:11 55.77219 -4.61878 2765 ft 181 kts 50°
2026-01-19 15:12 55.79698 -4.57282 2049 ft 167 kts 50°
2026-01-19 15:12 55.81271 -4.54360 1589 ft 162 kts 50°
2026-01-19 15:12 55.82045 -4.52920 1356 ft 160 kts 49°
2026-01-19 15:13 55.84174 -4.48962 694 ft 136 kts 49°
2026-01-19 15:14 55.85459 -4.46584 333 ft 131 kts 48°
2026-01-19 15:14 55.86072 -4.45421 154 ft 130 kts 49°
2026-01-19 15:15 55.87353 -4.43023 33 ft 20 kts 46°
2026-01-19 15:15 55.87434 -4.42873 36 ft 16 kts 46°
2026-01-19 15:16 55.87673 -4.42424 36 ft 19 kts 46°
2026-01-19 15:16 55.87678 -4.42145 30 ft 16 kts 173°
2026-01-19 15:17 55.87502 -4.42365 34 ft 16 kts 226°
2026-01-19 15:17 55.87315 -4.42627 30 ft 20 kts 200°
2026-01-19 15:18 55.87006 -4.42846 27 ft 24 kts 202°
2026-01-19 15:18 55.86861 -4.42957 36 ft 20 kts 202°
2026-01-19 15:18 55.86718 -4.42978 36 ft 4 kts 239°
2026-01-19 15:19 55.86703 -4.43042 34 ft 0 kts 255°